FLOCK 4S-14 (47528 NORAD) Tracking and Keplerian Element Data

This shows tracking and keplerian element data for the satellite.

Feedback or suggestion? Click here.




ElementValue
Catalog47528
NameFLOCK 4S-14
Epoch Orbit1355
Epoch Day105.94636632
Epoch Year2021
RAAN168.2298
Inclination97.5014
Eccentricity0.0007753
Argument of Perigee340.2906
Mean Anonmoly19.8024
Mean Motion15.11951554
Decay Rate1.495E-05
L11 47528U 21006DU 21105.94636632 .00001495 00000-0 90936-4 0 9993
L22 47528 97.5014 168.2298 0007753 340.2906 19.8024 15.11951554 13551

Live tracking and technical data element details for FLOCK 4S-14 (NORAD 47528). FLOCK 4S-14 can be tracked NOW for your location showing map with azimuth and elevation plus other details from your city location.

Track the satellite on the map from your city or location and see movement details for azimuth, elevation, latitude, longitude, range, height, and movement on the map or in text.







IsCatalogInMostPopularTable: catalog: 47528, numindb: 18
Update: records affected: 1



GetName: 47528 FLOCK 4S-14

Hit Count: updated at: Fri, 16 Apr 2021 11:25:44 GMT